Flag for U.S.A. Weather past 2 weeks in Missoula, Montana, U.S.A.

Now
69 °F

Sunny.


Feels Like: 69 °F
Forecast: 40 / 73 °F
Wind: 3 mph from West

Location: Missoula International Airport

Current Time: Oct 20, 2014 at 5:12:58 PM

Latest Report: Oct 20, 2014 at 4:53 PM


Visibility: 10 mi

Pressure: 29.73 "Hg

Humidity: 32%

Dew point: 38 °F

Location of MissoulaLocation

Historic Weather in Missoula — Graph

°F

Missoula temperature yesterday

Maximum temperature yesterday: 65 °F (at 3:53 PM)
Minimum temperature yesterday: 34 °F (at 8:53 AM)
Average temperature yesterday: 47 °F

Past Weeks' High & Low Weather Summary

 TemperatureHumidityPressure
High80 °F (Oct 7, 4:53 PM)100% (Oct 11, 10:53 PM)30.24 "Hg (Oct 11, 10:53 PM)
Low28 °F (Oct 17, 6:53 AM)23% (Oct 7, 4:53 PM)29.59 "Hg (Oct 15, 1:53 PM)
Average51 °F66%30.01 "Hg
* Reported Oct 5 3:53 PM — Oct 20 3:53 PM, Missoula, Weather by CustomWeather, © 2014

Note: Actual official high and low records may vary slightly from our data, if they occured in-between our weather recording intervals... More about our weather records

Advertising

Missoula weather history for previous 24 hours

 ConditionsComfort  
Time TempWeatherWind HumidityBarometerVisibility
3:53 PM
Oct 20
69 °FSunny.No wind31%29.75 "Hg10 mi
2:53 PM67 °FSunny.No wind35%29.77 "Hg10 mi
1:53 PM62 °FSunny.3 mph39%29.81 "Hg10 mi
12:53 PM57 °FSunny.5 mph51%29.86 "Hg10 mi
11:53 AM50 °FSunny.No wind63%29.90 "Hg10 mi
10:53 AM45 °FSunny.3 mph80%29.95 "Hg10 mi
9:53 AM39 °FSunny.No wind93%29.97 "Hg10 mi
8:53 AM35 °FClear.No wind96%29.98 "Hg10 mi
7:53 AM30 °FClear.No wind96%29.97 "Hg10 mi
6:53 AM33 °FPassing clouds.3 mph96%29.95 "Hg9 mi
5:53 AM34 °FClear.No wind97%29.94 "Hg10 mi
4:53 AM34 °FFog.3 mph100%29.94 "Hg4 mi
3:53 AM35 °FClear.No wind92%29.94 "Hg10 mi
2:53 AM38 °FClear.No wind93%29.94 "Hg10 mi
1:53 AM41 °FClear.No wind82%29.94 "Hg10 mi
12:53 AM42 °FClear.3 mph82%29.94 "Hg10 mi
11:53 PM
Oct 19
45 °FClear.7 mph80%29.95 "Hg10 mi
10:53 PM44 °FClear.No wind79%29.96 "Hg10 mi
8:53 PM49 °FClear.No wind71%29.96 "Hg10 mi
7:53 PM51 °FClear.No wind66%29.96 "Hg10 mi
6:53 PM59 °FSunny.3 mph56%29.94 "Hg10 mi
5:53 PM65 °FSunny.3 mph42%29.93 "Hg10 mi
Weather by CustomWeather, © 2014

See weather overviewHow to use our weather pages